Regional Weather Roundup
Issued by NWS

Home | Current Version | Previous Version | Graphics & Text | Print | Product List | Glossary On
Versions: 1 2 3 4 5 6 7 8 9 10 11 12 13 14 15 16 17 18 19 20 21 22 23 24 25 26 27 28 29 30 31 32 33 34 35 36 37 38 39 40 41 42 43 44 45 46 47 48 49 50
035
ASUS44 KMEG 220800
RWRTN
TENNESSEE HOURLY STATE WEATHER ROUNDUP
NATIONAL WEATHER SERVICE MEMPHIS TN
300 AM CDT FRI MAY 22 2015

TNZ002-004-019-021-049-052-054-088>092-220900-
WEST TENNESSEE

CITY           SKY/WX    TMP DP  RH WIND       PRES   REMARKS
MEMPHIS INTL   CLEAR     50  45  83 N5        30.21S
NWS MEMPHIS      N/A     46 N/A N/A MISG        N/A
JACKSON        CLEAR     45  43  93 CALM      30.22S FOG
DYERSBURG      CLEAR     46  34  61 CALM      30.24R
PARIS          CLEAR     41  41 100 CALM      30.21F
LEXINGTON      CLEAR     43  43 100 CALM      30.20S
$$

TNZ008-025-027-028-033-062-065-066-220900-
NORTH MIDDLE TENNESSEE

CITY           SKY/WX    TMP DP  RH WIND       PRES   REMARKS
NASHVILLE      CLEAR     48  45  89 NW3       30.21R
CLARKSVILLE    CLEAR     44  42  93 CALM      30.22R
COOKEVILLE     CLEAR     46  45  93 VRB3      30.17F
CROSSVILLE     CLEAR     46  43  89 N6        30.17F
$$

TNZ061-075-076-078-094-096-097-220900-
SOUTH MIDDLE TENNESSEE

CITY           SKY/WX    TMP DP  RH WIND       PRES   REMARKS
FAYETTEVILLE   CLEAR    N/A N/A N/A MISG      30.18R
TULLAHOMA      CLEAR     45  43  93 CALM      30.19R
WINCHESTER     PTCLDY    48  46  93 N7        30.18S
MCMINNVILLE    CLEAR     45  45 100 NE5       30.19R
COLUMBIA       CLEAR     43  43 100 CALM      30.18S
SHELBYVILLE    CLEAR     46  46 100 N6        30.20R
$$

TNZ017-018-042-046-047-220900-
NORTHEAST TENNESSEE

CITY           SKY/WX    TMP DP  RH WIND       PRES   REMARKS
TRI CITIES     PTCLDY    49  43  80 CALM      30.17R
ELIZABETHTON   CLOUDY    48  43  81 VRB3      30.16R
$$

TNZ012-013-036-069-073-074-220900-
CENTRAL EAST TENNESSEE

CITY           SKY/WX    TMP DP  RH WIND       PRES   REMARKS
KNOXVILLE      CLEAR     50  45  83 N6        30.16S
OAK RIDGE      CLEAR     49  44  83 CALM      30.19S
GATLINBURG     PTSUNNY   50  45  81 CALM      30.16S
$$

TNZ083-085-099-220900-
SOUTHEAST TENNESSEE

CITY           SKY/WX    TMP DP  RH WIND       PRES   REMARKS
CHATTANOOGA    CLEAR     53  45  74 N12       30.16S
$$

SKY/WX REPORTED AS FAIR MEANS FEW OR NO CLOUDS BELOW
12 THOUSAND FEET.




USA.gov is the U.S. government's official web portal to all federal, state and local government web resources and services.